Regional Weather Roundup
Issued by NWS

Home | Current Version | Previous Version | Graphics & Text | Print | Product List | Glossary On
Versions: 1 2 3 4 5 6 7 8 9 10 11 12 13 14 15 16 17 18 19 20 21 22 23 24 25 26 27 28 29 30 31 32 33 34 35 36 37 38 39 40 41 42 43 44 45 46 47 48 49 50
000
ASUS43 KMPX 270601
RWRMN
WEATHER ROUNDUP FOR MINNESOTA
NATIONAL WEATHER SERVICE TWIN CITIES/CHANHASSEN MN
100 AM CDT SAT MAY 27 2017


NOTE: "FAIR" INDICATES FEW OR NO CLOUDS BELOW 12,000 FEET WITH NO
SIGNIFICANT WEATHER AND/OR OBSTRUCTIONS TO VISIBILITY. N/A MEANS
CURRENT SKY AND/OR WEATHER CONDITIONS ARE NOT AVAILABLE.

MNZ060>063-068>070-270700-
   Twin Cities Metro

CITY           SKY/WX    TMP DP  RH WIND       PRES   REMARKS
TWIN CITIES    CLEAR     62  46  55 NW5       29.85R
6HR MIN TEMP:  61; 6HR MAX TEMP:  78;

ST PAUL        CLEAR     57  52  83 E3        29.85R
CRYSTAL        CLEAR     59  45  59 W3        29.83R
BLAINE         CLEAR     61  48  63 CALM      29.84S
LAKEVILLE      CLEAR     55  50  82 CALM      29.86R
EDEN PRAIRIE   CLEAR     62  46  55 NW5       29.84R
6HR MIN TEMP:  62; 6HR MAX TEMP:  77;

SOUTH ST PAUL  CLEAR     59  49  68 W3        29.84R
LAKE ELMO      FAIR      54  50  87 CALM      29.85S
$$
MNZ001>005-007-008-013>017-022>024-027-028-270700-
   Northwest Minnesota

CITY           SKY/WX    TMP DP  RH WIND       PRES   REMARKS
BEMIDJI        PTCLDY    53  43  70 CALM      29.80S
HALLOCK        CLEAR     46  37  71 S3        29.74S
ROSEAU         CLEAR     52  45  76 SW7       29.75S
WARROAD        CLEAR     54  46  76 SW5       29.75S
CROOKSTON      CLEAR     48  41  76 SW8       29.79S
FOSSTON        CLEAR     46  41  81 S7        29.81S
DETROIT LAKES  CLEAR     54  45  71 W6        29.83S
MOORHEAD       CLOUDY    54  43  66 SW6       29.83S
PARK RAPIDS    PTCLDY    52  41  66 CALM      29.82S
MAHNOMEN       FAIR      51  42  70 SW7       29.81S
$$
MNZ006-009>011-018-025>026-270700-
   North Central Minnesota

CITY           SKY/WX    TMP DP  RH WIND       PRES   REMARKS
BAUDETTE       CLEAR     51  44  77 SW6       29.75R
FLAG ISLAND    CLEAR     55  48  76 SW9       29.72R
INTL FALLS     CLEAR     47  42  83 SW3       29.76S
6HR MIN TEMP:  46; 6HR MAX TEMP:  72;

WASKISH        CLEAR     54  46  76 S3        29.78S
BIG FORK       CLEAR     46  43  87 CALM      29.80R
LONGVILLE      CLEAR     48  46  93 CALM      29.82S
GRAND RAPIDS   CLEAR     56  44  64 W3        29.83R
CRANE LAKE     CLEAR     46  46 100 CALM      29.79S
ORR            CLEAR     52  43  71 CALM      29.76S
COOK           CLEAR     48  46  93 CALM      29.79S
WALKER         FAIR      49  43  79 CALM      29.81F
$$
MNZ012-019>021-037-270700-
   Northeast Minnesota

CITY           SKY/WX    TMP DP  RH WIND       PRES   REMARKS
DULUTH         CLEAR     48  47  96 W7        29.79S
6HR MIN TEMP:  48; 6HR MAX TEMP:  63;

ELY            PTCLDY    54  52  94 CALM      29.78S
HIBBING        CLEAR     46  44  93 CALM      29.79S
EVELETH        CLEAR     49  47  90 CALM      29.80S
DULUTH HARBOR  CLEAR     46  46 100 SW6       29.80S FOG
TWO HARBORS    PTCLDY    50  45  81 CALM      29.77S
SILVER BAY     PTCLDY    48  46  93 CALM      29.76F FOG
GRAND MARAIS     N/A     48  46  93 CALM      29.76F
G MARAIS ARPRT CLEAR     52  46  82 CALM      29.79F
$$
MNZ029>031-032-039>041-046>048-054>057-064-270700-
   West Central Minnesota

CITY           SKY/WX    TMP DP  RH WIND       PRES   REMARKS
FERGUS FALLS   CLEAR     52  43  71 CALM      29.84R
WHEATON        CLEAR     54  43  66 SW5       29.88R
MORRIS         CLEAR     54  46  76 W3        29.86R
ALEXANDRIA     PTCLDY    51  45  79 SW8       29.87R
ELBOW LAKE     FAIR      47  43  88 CALM      29.86S
WADENA         CLEAR     52  43  71 SW3       29.83F
GLENWOOD       CLOUDY    54  45  71 W6        29.87R
APPLETON       CLEAR     52  46  82 CALM      29.86S
BENSON         CLEAR     52  46  82 CALM      29.88S
ORTONVILLE     PTCLDY    54  46  76 CALM      29.86S
MADISON        CLEAR     55  50  82 CALM      29.87S
WILLMAR        FAIR      54  46  76 CALM      29.88S
$$
MNZ033>034-036-042>043-049>051-058-059-270700-
   Central Minnesota

CITY           SKY/WX    TMP DP  RH WIND       PRES   REMARKS
ST CLOUD       CLEAR     54  46  74 W6        29.84S
6HR MIN TEMP:  54; 6HR MAX TEMP:  72;

SAUK CENTRE    FAIR      52  45  76 CALM      29.86R
PAYNESVILLE    CLOUDY    49  45  84 SW3       29.86S
AITKIN         CLEAR     48  45  87 CALM      29.81S
PINE RIVER     CLEAR     48  45  87 CALM      29.86F
BRAINERD       CLEAR     55  44  66 W5        29.83S
STAPLES        CLEAR     52  43  71 CALM      29.83F
LONG PRAIRIE   FAIR      54  43  66 SW5       29.85S
LITTLE FALLS   PTCLDY    48  45  87 CALM      29.85S
LITCHFIELD     CLEAR     57  48  72 W5        29.87R
BUFFALO        CLEAR     58  47  69 CALM      29.86S
MAPLE LAKE     CLEAR     54  47  78 CALM      29.86S
HUTCHINSON     CLEAR     56  49  75 W3        29.87S
$$
MNZ037-044-045-052-053-270700-
   East Central Minnesota

CITY           SKY/WX    TMP DP  RH WIND       PRES   REMARKS
PRINCETON      CLEAR     54  48  82 CALM      29.84S
MORA           CLEAR     55  45  67 NW3       29.84S
CAMBRIDGE      CLEAR     55  46  71 CALM      29.82S
RUSH CITY      MOCLDY    56  48  72 CALM      29.83R
MOOSE LAKE     PTCLDY    55  45  67 W7        29.79S
HINCKLEY       FAIR      55  48  76 W3        29.82R
CLOQUET        CLEAR     45  43  93 W5        29.80S FOG
MCGREGOR       CLEAR     55  45  67 W3        29.82R
$$
MNZ071>073-080-081-089-090-097-098-270700-
   Southwest Minnesota

CITY           SKY/WX    TMP DP  RH WIND       PRES   REMARKS
MONTEVIDEO     CLEAR     55  46  71 CALM      29.87S
CANBY          CLOUDY    53  47  82 CALM      29.89R
MARSHALL       CLEAR     56  47  71 W6        29.89R
REDWOOD FALLS  CLEAR     59  44  57 NW5       29.87R
OLIVIA         CLEAR     55  45  67 CALM      29.86S
PIPESTONE      CLEAR     55  41  58 CALM      29.90S
WINDOM         CLEAR     55  45  67 W6        29.90R
WORTHINGTON    CLEAR     52  43  71 W3        29.91R
JACKSON        CLEAR     55  43  62 CALM      29.89R
TRACY          CLEAR     58  47  69 CALM      29.89S
SLAYTON        CLEAR     51  44  78 NW6       29.91R
$$
MNZ065>067-074>077-082>085-091>093-270700-
   South Central Minnesota

CITY           SKY/WX    TMP DP  RH WIND       PRES   REMARKS
MANKATO        CLEAR     61  47  59 CALM      29.87R
NEW ULM        CLEAR     55  46  71 NW5       29.87S
ST JAMES       CLEAR     57  46  67 W6        29.88S
FAIRMONT       CLEAR     59  45  59 CALM      29.88S
GLENCOE        CLEAR     58  51  77 CALM      29.86R
FARIBAULT      PTCLDY    55  50  82 CALM      29.87R
OWATONNA       CLOUDY    54  48  82 CALM      29.87S
WASECA         CLEAR     55  46  71 CALM      29.89R
ALBERT LEA     CLOUDY    57  55  94 CALM      29.88S
$$
MNZ078>079-086>088-094>096-270700-
   Southeast Minnesota

CITY           SKY/WX    TMP DP  RH WIND       PRES   REMARKS
ROCHESTER      CLOUDY    58  57  97 SW9       29.88S
6HR MIN TEMP:  58; 6HR MAX TEMP:  71;

RED WING       CLEAR     59  55  88 CALM      29.84R
STANTON        CLEAR     56  50  82 S3        29.85R
DODGE CENTER   CLOUDY    59  48  67 SW6       29.88R
WINONA         CLEAR     61  55  82 CALM      29.86S
AUSTIN         CLOUDY    55  54  94 CALM      29.88R FOG
PRESTON        CLEAR     59  56  90 SW8       29.89S
$$
ABBREVIATIONS USED IN REMARKS
   TC - TEMPERATURES IN CELSIUS
  WCI - WIND CHILL INDEX
   HX - HEAT INDEX
  VSB - VISIBILITY
$$



USA.gov is the U.S. government's official web portal to all federal, state and local government web resources and services.